maangchi.com alexa rank chart, maangchi.com alexa rank daily changes

maangchi.com alexa rank chart, maangchi.com alexa rank daily changes

maangchi.com
Actual rank:
40 263

RANK HISTORY

Date Rank Diff
2017/09/20 40 263 +192
2017/09/19 40 071 -664
2017/09/18 40 735 -541
2017/09/17 41 276 +545
2017/09/16 40 731 +1 018
2017/09/15 39 713 +355
2017/09/14 39 358 +523
2017/09/13 38 835 +149
2017/09/12 38 686 -310
2017/09/11 38 996 +136
2017/09/10 38 860 +76
2017/09/09 38 784 +197
2017/09/08 38 587 +625
2017/09/07 37 962 +244
2017/09/06 37 718 -253
2017/09/05 37 971 -111
2017/09/04 38 082 -225
2017/09/03 38 307 +89
2017/09/02 38 218 +133
2017/09/01 38 085 +265
2017/08/31 37 820 +629
2017/08/30 37 191 -103
2017/08/29 37 294 +208
2017/08/28 37 086 -400
2017/08/27 37 486 +485
2017/08/26 37 001 +97
2017/08/25 36 904 +529
2017/08/24 36 375 +98
2017/08/23 36 277 +27
2017/08/22 36 250 -130
2017/08/21 36 380 -667
2017/08/20 37 047 +78
2017/08/19 36 969 +36
2017/08/18 36 933 +395
2017/08/17 36 538 -228
2017/08/16 36 766 -499
2017/08/15 37 265 -483
2017/08/14 37 748 -157
2017/08/13 37 905 -502
2017/08/12 38 407 -360
2017/08/11 38 767 +117
2017/08/10 38 650 +495
2017/08/09 38 155 -45
2017/08/08 38 200 -426
2017/08/07 38 626 -97
2017/08/06 38 723 +39
2017/08/05 38 684 -189
2017/08/04 38 873 +414
2017/08/03 38 459 +794
2017/08/02 37 665 -24
2017/08/01 37 689 -23
2017/07/31 37 712 -283
2017/07/30 37 995 -141
2017/07/29 38 136 -457
2017/07/28 38 593 +179
2017/07/27 38 414 -198
2017/07/26 38 612 +328
2017/07/25 38 284 -700
2017/07/24 38 984 -510
2017/07/23 39 494 +86
2017/07/22 39 408

WIDGET FOR YOUR SITE

DOMAINS WITH THE NEAREST RANK

Domain Rank
locanto.com.au 40 258
ticketleap.com 40 259
expert.de 40 260
mywconline.com 40 261
bongda24h.vn 40 262
maangchi.com 40 263
royalcams.com 40 264
studio-kazu.jp 40 265
daimg.com 40 266
ditutor.com 40 267
postnord.com 40 268

DOMAINS WITH THE NEAREST RANK BY TLD .com

Domain Rank
joomir.com 40 252
humankinetics.com 40 255
slideboom.com 40 257
ticketleap.com 40 259
mywconline.com 40 261
maangchi.com 40 263
royalcams.com 40 264
daimg.com 40 266
ditutor.com 40 267
postnord.com 40 268
voffka.com 40 270